Hourly Data Report for May 24, 2022

MIRAMICHI RCS
NEW BRUNSWICK
Current Station Operator: ECCC - MSC

47°00'34.000" N
65°27'54.000" W
33.00 m
8100989
71744
ACQ

Download Data

Hourly Data (May 2022)
Hourly Data Report for May 24, 2022
TIME
LST
Temp Definition
°C
Dew Point Definition
°C
Rel Hum Definition
%
Precip. Amount Definition
mm

Wind Dir Definition
10's deg

Wind Spd Definition
km/h
Visibility Definition
km
Stn Press Definition
kPa
Hmdx Definition


Wind Chill Definition


Weather Definition


00:00 6.3 2.1 75 0.0 32 5   102.11     LegendNANA
01:00 6.5 0.9 67 0.0 33 5   102.12     LegendNANA
02:00 6.0 0.5 68 0.0 32 2   102.16     LegendNANA
03:00 6.8 -0.1 62 0.0 32 7   102.18     LegendNANA
04:00 6.3 -0.2 63 0.0 34 6   102.20     LegendNANA
05:00 2.5 0.4 86 0.0 18 2   102.27     LegendNANA
06:00 7.1 0.2 61 0.0 1 5   102.36     LegendNANA
07:00 8.9 0.4 55 0.0 36 6   102.42     LegendNANA
08:00 11.3 0.6 47 0.0 1 7   102.45     LegendNANA
09:00 13.0 0.4 42 0.0 8 8   102.48     LegendNANA
10:00 14.0 1.1 41 0.0 9 11   102.48     LegendNANA
11:00 14.6 0.4 38 0.0 8 15   102.47     LegendNANA
12:00 15.3 -0.5 34 0.0 9 18   102.45     LegendNANA
13:00 15.7 -2.5 29 0.0 8 14   102.40     LegendNANA
14:00 16.4 -2.0 28 0.0 8 10   102.36     LegendNANA
15:00 16.7 -3.1 26 0.0 6 14   102.33     LegendNANA
16:00 16.9 -2.9 26 0.0 8 16   102.32     LegendNANA
17:00 16.4 -1.8 29 0.0 11 15   102.31     LegendNANA
18:00 15.3 -2.8 29 0.0 13 17   102.31     LegendNANA
19:00 14.3 -0.7 36 0.0 14 16   102.32     LegendNANA
20:00 12.3 0.9 46 0.0 14 6   102.35     LegendNANA
21:00 11.0 1.0 50 0.0 16 4   102.37     LegendNANA
22:00 9.4 1.3 57 0.0 14 5   102.37     LegendNANA
23:00 8.4 1.7 62 0.0 15 4   102.38     LegendNANA

Notes on Data Quality.

Legend

  • E = Estimated
  • M = Missing
  • NA = Not Available*
  • [empty] = Indicates an unobserved value
Date modified: